• In United Kingdom
  • List of Countries
  • For 7 days
  • Water Temperature
  • Satellite Maps
  • Weather Map
  • Weather Widgets
  • user-avatar
    Login

    Hourly Weather Tskhaltubo

    Today, 20 September, Wednesday

    Time Temperature Precipitation Wind Pressure Humidity
    00:00 +25°C° 0 mm 3 mps 744 mmHg 35%
    01:00 +25°C° 0 mm 3 mps 744 mmHg 35%
    02:00 +24°C° 0 mm 3 mps 744 mmHg 34%
    03:00 +25°C° 0 mm 3 mps 744 mmHg 29%
    04:00 +25°C° 0 mm 3 mps 744 mmHg 30%
    05:00 +24°C° 0 mm 3 mps 744 mmHg 31%
    06:00 +24°C° 0 mm 3 mps 744 mmHg 32%
    07:00 +26°C° 0 mm 3 mps 744 mmHg 33%
    08:00 +29°C° 0 mm 2 mps 744 mmHg 33%
    09:00 +31°C° 0 mm 2 mps 744 mmHg 32%
    10:00 +34°C° 0 mm 2 mps 744 mmHg 30%
    11:00 +35°C° 0 mm 2 mps 743 mmHg 27%
    12:00 +37°C° 0 mm 2 mps 743 mmHg 25%
    13:00 +37°C° 0 mm 2 mps 743 mmHg 25%
    14:00 +37°C° 0 mm 2 mps 743 mmHg 25%
    15:00 +36°C° 0 mm 1 mps 743 mmHg 25%
    16:00 +33°C° 0 mm 1 mps 743 mmHg 32%
    17:00 +31°C° 0 mm 1 mps 743 mmHg 39%
    18:00 +28°C° 0 mm 1 mps 743 mmHg 46%
    19:00 +27°C° 0 mm 1 mps 743 mmHg 44%
    20:00 +27°C° 0 mm 2 mps 743 mmHg 43%
    21:00 +26°C° 0 mm 2 mps 744 mmHg 41%
    22:00 +25°C° 0 mm 2 mps 744 mmHg 40%
    23:00 +25°C° 0 mm 2 mps 744 mmHg 39%

    Tomorrow, 21 September, Thursday

    Time Temperature Precipitation Wind Pressure Humidity
    00:00 +25°C° 0 mm 2 mps 744 mmHg 38%
    01:00 +25°C° 0 mm 2 mps 744 mmHg 37%
    02:00 +25°C° 0 mm 3 mps 744 mmHg 35%
    03:00 +24°C° 0 mm 3 mps 743 mmHg 34%
    04:00 +24°C° 0 mm 3 mps 743 mmHg 33%
    05:00 +24°C° 0 mm 3 mps 743 mmHg 32%
    06:00 +24°C° 0 mm 3 mps 743 mmHg 31%
    07:00 +27°C° 0 mm 3 mps 743 mmHg 31%
    08:00 +29°C° 0 mm 2 mps 743 mmHg 32%
    09:00 +31°C° 0 mm 2 mps 742 mmHg 32%
    10:00 +34°C° 0 mm 2 mps 742 mmHg 30%
    11:00 +36°C° 0 mm 2 mps 742 mmHg 27%
    12:00 +37°C° 0 mm 2 mps 742 mmHg 24%
    13:00 +38°C° 0 mm 2 mps 741 mmHg 24%
    14:00 +38°C° 0 mm 2 mps 741 mmHg 25%
    15:00 +38°C° 0 mm 2 mps 741 mmHg 25%
    16:00 +35°C° 0 mm 2 mps 741 mmHg 32%
    17:00 +32°C° 0 mm 2 mps 740 mmHg 38%
    18:00 +29°C° 0 mm 1 mps 740 mmHg 45%
    19:00 +28°C° 0 mm 2 mps 741 mmHg 44%
    20:00 +28°C° 0 mm 2 mps 741 mmHg 42%
    21:00 +27°C° 0 mm 2 mps 742 mmHg 41%
    22:00 +27°C° 0 mm 2 mps 742 mmHg 41%
    23:00 +27°C° 0 mm 2 mps 742 mmHg 41%

    Day after tomorrow, 22 September, Friday

    Time Temperature Precipitation Wind Pressure Humidity
    00:00 +26°C° 0 mm 3 mps 742 mmHg 41%
    01:00 +26°C° 0 mm 3 mps 742 mmHg 41%
    02:00 +25°C° 0 mm 3 mps 742 mmHg 41%
    03:00 +25°C° 0 mm 3 mps 741 mmHg 41%
    04:00 +25°C° 0 mm 3 mps 741 mmHg 41%
    05:00 +25°C° 0 mm 3 mps 741 mmHg 41%
    06:00 +24°C° 0 mm 3 mps 741 mmHg 42%
    07:00 +27°C° 0 mm 3 mps 741 mmHg 40%
    08:00 +29°C° 0 mm 3 mps 741 mmHg 38%
    09:00 +31°C° 0 mm 2 mps 741 mmHg 36%
    10:00 +32°C° 0 mm 2 mps 740 mmHg 33%
    11:00 +35°C° 0 mm 2 mps 740 mmHg 30%
    12:00 +36°C° 0 mm 2 mps 740 mmHg 27%
    13:00 +36°C° 0 mm 2 mps 740 mmHg 28%
    14:00 +36°C° 0 mm 2 mps 740 mmHg 29%
    15:00 +36°C° 0 mm 2 mps 740 mmHg 30%
    16:00 +32°C° 0 mm 2 mps 740 mmHg 42%
    17:00 +29°C° 0 mm 1 mps 740 mmHg 53%
    18:00 +26°C° 0 mm 1 mps 741 mmHg 65%
    19:00 +25°C° 0 mm 1 mps 741 mmHg 69%
    20:00 +24°C° 0 mm 1 mps 742 mmHg 73%
    21:00 +23°C° 0 mm 1 mps 743 mmHg 77%
    22:00 +22°C° 0 mm 1 mps 743 mmHg 78%
    23:00 +22°C° 0 mm 1 mps 743 mmHg 79%

    23 September, Saturday

    Time Temperature Precipitation Wind Pressure Humidity
    00:00 +22°C° 0 mm 1 mps 744 mmHg 80%
    01:00 +22°C° 0 mm 1 mps 744 mmHg 79%
    02:00 +22°C° 0 mm 1 mps 744 mmHg 77%
    03:00 +21°C° 0 mm 1 mps 744 mmHg 76%
    04:00 +21°C° 0 mm 1 mps 744 mmHg 73%
    05:00 +21°C° 0 mm 1 mps 744 mmHg 71%
    06:00 +21°C° 0 mm 1 mps 744 mmHg 69%
    07:00 +23°C° 0 mm 1 mps 744 mmHg 64%
    08:00 +25°C° 0 mm 1 mps 744 mmHg 59%
    09:00 +27°C° 0 mm 1 mps 744 mmHg 54%
    10:00 +28°C° 0 mm 1 mps 744 mmHg 51%
    11:00 +29°C° 0 mm 2 mps 744 mmHg 49%
    12:00 +30°C° 0 mm 2 mps 744 mmHg 47%
    13:00 +29°C° 0.1 mm 2 mps 744 mmHg 52%
    14:00 +29°C° 0.1 mm 3 mps 744 mmHg 57%
    15:00 +28°C° 0.1 mm 3 mps 744 mmHg 62%
    16:00 +27°C° 0.3 mm 2 mps 744 mmHg 72%
    17:00 +25°C° 0.3 mm 2 mps 745 mmHg 81%
    18:00 +23°C° 0.3 mm 1 mps 745 mmHg 90%
    19:00 +23°C° 0 mm 1 mps 746 mmHg 92%
    20:00 +22°C° 0 mm 1 mps 746 mmHg 94%
    21:00 +20°C° 0 mm 0 mps 747 mmHg 96%
    22:00 +20°C° 0.1 mm 0 mps 747 mmHg 95%
    23:00 +21°C° 0.1 mm 1 mps 747 mmHg 94%

    24 September, Sunday

    Time Temperature Precipitation Wind Pressure Humidity
    00:00 +21°C° 0.1 mm 1 mps 747 mmHg 93%
    01:00 +21°C° 0 mm 1 mps 747 mmHg 91%
    02:00 +20°C° 0 mm 1 mps 747 mmHg 89%
    03:00 +20°C° 0 mm 1 mps 747 mmHg 87%
    04:00 +20°C° 0 mm 1 mps 747 mmHg 85%
    05:00 +19°C° 0 mm 1 mps 747 mmHg 82%
    06:00 +19°C° 0 mm 1 mps 747 mmHg 79%
    07:00 +22°C° 0 mm 1 mps 747 mmHg 70%
    08:00 +24°C° 0 mm 1 mps 747 mmHg 60%
    09:00 +27°C° 0 mm 1 mps 747 mmHg 51%
    10:00 +28°C° 0 mm 1 mps 747 mmHg 46%
    11:00 +30°C° 0 mm 1 mps 746 mmHg 41%
    12:00 +31°C° 0 mm 2 mps 746 mmHg 36%
    13:00 +31°C° 0 mm 2 mps 746 mmHg 37%
    14:00 +31°C° 0 mm 2 mps 745 mmHg 38%
    15:00 +31°C° 0 mm 2 mps 745 mmHg 39%
    16:00 +29°C° 0 mm 2 mps 745 mmHg 51%
    17:00 +26°C° 0 mm 1 mps 745 mmHg 63%
    18:00 +24°C° 0 mm 1 mps 746 mmHg 75%
    19:00 +23°C° 0 mm 1 mps 746 mmHg 72%
    20:00 +22°C° 0 mm 1 mps 746 mmHg 69%
    21:00 +21°C° 0 mm 2 mps 747 mmHg 66%
    22:00 +21°C° 0 mm 2 mps 747 mmHg 61%
    23:00 +20°C° 0 mm 2 mps 747 mmHg 56%

    25 September, Monday

    Time Temperature Precipitation Wind Pressure Humidity
    00:00 +20°C° 0 mm 2 mps 747 mmHg 50%
    01:00 +20°C° 0 mm 2 mps 747 mmHg 49%
    02:00 +20°C° 0 mm 2 mps 747 mmHg 47%
    03:00 +20°C° 0 mm 2 mps 747 mmHg 45%
    04:00 +20°C° 0 mm 2 mps 747 mmHg 45%
    05:00 +19°C° 0 mm 2 mps 747 mmHg 46%
    06:00 +19°C° 0 mm 2 mps 747 mmHg 46%
    07:00 +23°C° 0 mm 2 mps 747 mmHg 43%
    08:00 +25°C° 0 mm 2 mps 747 mmHg 40%
    09:00 +28°C° 0 mm 2 mps 747 mmHg 36%
    10:00 +29°C° 0 mm 2 mps 747 mmHg 33%
    11:00 +31°C° 0 mm 3 mps 747 mmHg 30%
    12:00 +33°C° 0 mm 3 mps 746 mmHg 27%
    13:00 +33°C° 0 mm 3 mps 746 mmHg 27%
    14:00 +33°C° 0 mm 3 mps 746 mmHg 27%
    15:00 +34°C° 0 mm 3 mps 746 mmHg 27%
    16:00 +30°C° 0 mm 2 mps 746 mmHg 33%
    17:00 +28°C° 0 mm 2 mps 746 mmHg 39%
    18:00 +25°C° 0 mm 2 mps 746 mmHg 45%
    19:00 +25°C° 0 mm 2 mps 747 mmHg 43%
    20:00 +24°C° 0 mm 3 mps 747 mmHg 41%
    21:00 +24°C° 0 mm 3 mps 747 mmHg 39%
    22:00 +24°C° 0 mm 3 mps 747 mmHg 37%
    23:00 +24°C° 0 mm 3 mps 747 mmHg 36%
    Show more